Regional Weather Roundup
Issued by NWS

Home | Current Version | Previous Version | Graphics & Text | Print | Product List | Glossary On
Versions: 1 2 3 4 5 6 7 8 9 10 11 12 13 14 15 16 17 18 19 20 21 22 23 24 25 26 27 28 29 30 31 32 33 34 35 36 37 38 39 40 41 42 43 44 45 46 47 48 49 50
000
ASUS43 KLSX 231507
RWRMO

WEATHER SUMMARY FOR MISSOURI
NATIONAL WEATHER SERVICE SPRINGFIELD MO
900 AM CST THU NOV 23 2017

NOTE: "FAIR" INDICATES FEW OR NO CLOUDS BELOW 12,000 FEET WITH NO
       SIGNIFICANT WEATHER AND/OR OBSTRUCTIONS TO VISIBILITY.
       CURRENT SKY AND/OR WEATHER CONDITIONS ARE NOT AVAILABLE FOR
       CHILLICOTHE AND FARMINGTON.

MOZ001>031-035>038-043-044-053-054-231600-
...NORTHERN AND WESTERN MISSOURI...

CITY           SKY/WX    TMP DP  RH WIND       PRES   REMARKS
KANSAS CTY INT PTSUNNY   39  25  57 SW12      30.05R
KANSAS C DTWN  SUNNY     41  24  51 SW12      30.06S
LEE`S SUMMIT   SUNNY     41  25  53 W12       30.06S
ST JOSEPH      SUNNY     38  25  59 SW5       30.05S
CHILLICOTHE      N/A     38  24  57 VRB5      30.03F
KIRKSVILLE     CLOUDY    37  24  59 W14       30.01S WCI  28

$$
MOZ066>068-077>081-088>096-101>105-231600-
...SOUTHWEST MISSOURI...

CITY           SKY/WX    TMP DP  RH WIND       PRES   REMARKS
SPRINGFIELD    SUNNY     41  26  55 SW10      30.10F
JOPLIN         SUNNY     44  26  49 SW12      30.12F
BRANSON        MOSUNNY   45  18  33 SW6       30.14S

$$
MOZ032>034-039>042-045>050-055>058-069>072-231600-
...CENTRAL MISSOURI...

CITY           SKY/WX    TMP DP  RH WIND       PRES   REMARKS
COLUMBIA       CLOUDY    39  24  55 SW10      30.05F
JEFFERSON CITY SUNNY     38  22  52 SW6       30.08F
ROLLA          SUNNY     39  20  46 SW15      30.09S
SEDALIA        CLOUDY    42  26  53 SW12G21   30.06F
WHITEMAN AFB   CLOUDY    41  23  48 SW9       30.02F
WARRENSBURG    CLOUDY    37  25  60 SW12      30.07S WCI  30
OSAGE BEACH    SUNNY     41  23  48 W7        30.10F

$$
MOZ051-052-059>065-231600-
...EAST CENTRAL MISSOURI...

CITY           SKY/WX    TMP DP  RH WIND       PRES   REMARKS
ST LOUIS INTL  MOSUNNY   39  22  50 S6        30.09F
SPIRIT OF STL  MOSUNNY   39  26  59 CALM      30.08F
ST CHARLES     SUNNY     39  22  50 S7        30.09F

$$
MOZ072>076-082>087-097>100-106>115-231600-
...SOUTH CENTRAL AND SOUTHEAST MISSOURI...

CITY           SKY/WX    TMP DP  RH WIND       PRES   REMARKS
CAPE GIRARDEAU SUNNY     34  28  79 CALM      30.19S
FARMINGTON     SUNNY     37  24  59 S9        30.13F
POPLAR BLUFF   SUNNY     35  27  72 CALM      30.19S
WEST PLAINS    SUNNY     40  21  46 SW7       30.13F

$$


USA.gov is the U.S. government's official web portal to all federal, state and local government web resources and services.